Regional Weather Roundup
Issued by NWS

Home | Current Version | Previous Version | Graphics & Text | Print | Product List | Glossary On
Versions: 1 2 3 4 5 6 7 8 9 10 11 12 13 14 15 16 17 18 19 20 21 22 23 24 25 26 27 28 29 30 31 32 33 34 35 36 37 38 39 40 41 42 43 44 45 46 47 48 49 50
000
ASUS45 KABQ 221801
RWRNM
NEW MEXICO REGIONAL WEATHER ROUNDUP
NATIONAL WEATHER SERVICE ALBUQUERQUE NM
1200 PM MDT THU JUN 22 2017

NOTE: "FAIR" MEANS FEW OR NO CLOUDS BELOW 12,000 FEET AGL WITH NO
       SIGNIFICANT WEATHER OR OBSTRUCTIONS TO VISION.

      THIS PRODUCT IS RELEASED AS TWO VERSIONS.  ONE VERSION NEAR
      THE TOP OF THE HOUR CONTAINING PRELIMINARY DATA FROM ALBUQUERQUE
      AND OTHER STATIONS.  A FINAL VERSION WITH ADDITIONAL DATA IS
      ISSUED ABOUT 10 MINUTES AFTER THE HOUR.

NMZ501-503-504-510>518-221900-
NORTHWEST PLATEAU/NORTHCENTRAL MOUNTAINS

CITY           SKY/WX    TMP DP  RH WIND       PRES   REMARKS
FARMINGTON     FAIR      90  33  13 CALM      30.00F
6HR MIN TEMP:  61; 6HR MAX TEMP:  90;

LOS ALAMOS     HVY RAIN  78  41  26 S28G38    30.17R
SANTA FE       FAIR      92  41  17 SW12      30.06F
6HR MIN TEMP:  69; 6HR MAX TEMP:  92;

TAOS           FAIR      86  39  19 SW5       30.15F
ANGEL FIRE     FAIR      78  37  22 SW14G21   30.25S

$$
NMZ402-403-502-505>509-221900-
WESTCENTRAL MOUNTAINS/SOUTHWEST MOUNTAINS

CITY           SKY/WX    TMP DP  RH WIND       PRES   REMARKS
GALLUP         FAIR      95  28   9 W22G29    30.11F
6HR MIN TEMP:  54; 6HR MAX TEMP:  95;

GRANTS         FAIR      95  26   8 N15G25    30.12S
SILVER CITY    FAIR      94  41  16 W13G22    30.04S

$$
NMZ407-409-411-412-221900-
SOUTHERN DESERTS

CITY           SKY/WX    TMP DP  RH WIND       PRES   REMARKS
DEMING         FAIR     100  38  11 MISG      29.92F HX  95
6HR MIN TEMP:  70; 6HR MAX TEMP: 100;

LAS CRUCES     FAIR      96  40  14 NW5       29.94F
HOLLOMAN AFB   FAIR      97  46  17 W8        29.91F
ALAMOGORDO     FAIR      93  45  18 NW9       29.91F
T OR C         FAIR      97  40  14 E7        29.95F
6HR MIN TEMP:  71; 6HR MAX TEMP:  97;


$$
NMZ519>523-221900-
CENTRAL VALLEYS/CENTRAL HIGHLANDS

CITY           SKY/WX    TMP DP  RH WIND       PRES   REMARKS
ALBUQUERQUE    FAIR      89  45  21 SW6       30.01F
6HR MIN TEMP:  76; 6HR MAX TEMP:  89;

DOUBLE EAGLE   SUNNY     91  45  19 SW6       30.05F
MORIARTY ARPT  FAIR      93  42  17 W6        30.06F
6HR MIN TEMP:  63; 6HR MAX TEMP:  93;

CLINES CORNERS FAIR      90  39  16 W14G21    30.12F
6HR MIN TEMP:  58; 6HR MAX TEMP:  90;

BELEN          FAIR      94  35  13 SW3       29.99F
6HR MIN TEMP:  67; 6HR MAX TEMP:  94;

SOCORRO        FAIR      94  37  13 SE8       29.96F
6HR MIN TEMP:  71; 6HR MAX TEMP:  94;


$$
NMZ524>526-539-540-221900-
SOUTHCENTRAL MOUNTAINS

CITY           SKY/WX    TMP DP  RH WIND       PRES   REMARKS
RUIDOSO        FAIR      90  39  17 N12G18    30.13F

$$
NMZ527>531-221900-
NORTHEAST HIGHLANDS/NORTHEAST PLAINS

CITY           SKY/WX    TMP DP  RH WIND       PRES   REMARKS
LAS VEGAS      FAIR      93  30  10 NW9       30.07F
6HR MIN TEMP:  57; 6HR MAX TEMP:  94;

RATON          FAIR      92  42  17 E8        30.01F
6HR MIN TEMP:  58; 6HR MAX TEMP:  92;

CLAYTON        FAIR      96  42  15 NW9       29.88F
6HR MIN TEMP:  63; 6HR MAX TEMP:  98;


$$
NMZ532>537-221900-
EASTCENTRAL PLAINS

CITY           SKY/WX    TMP DP  RH WIND       PRES   REMARKS
TUCUMCARI      FAIR      94  55  26 VRB5      29.81F
6HR MIN TEMP:  61; 6HR MAX TEMP:  94;

CANNON AFB     FAIR      93  51  23 W10G21    29.89F
6HR MIN TEMP:  62; 6HR MAX TEMP:  93;

CLOVIS AIRPORT NOT AVBL

$$
NMZ028-029-538-221900-
SOUTHEAST PLAINS

CITY           SKY/WX    TMP DP  RH WIND       PRES   REMARKS
ROSWELL        FAIR      97  49  19 E5        29.82F
6HR MIN TEMP:  69; 6HR MAX TEMP:  98;

ARTESIA        FAIR      97  57  26 SE13      29.82F HX  95
CARLSBAD       FAIR      93  58  30 SE7       29.80F
6HR MIN TEMP:  69; 6HR MAX TEMP:  93;

HOBBS          SUNNY     91  50  24 SE7       29.87F


$$



USA.gov is the U.S. government's official web portal to all federal, state and local government web resources and services.